Regional Weather Roundup
Issued by NWS Goodland, KS

Home | Current Version | Previous Version | Graphics & Text | Print | Product List | Glossary On
Versions: 1 2 3 4 5 6 7 8 9 10 11 12 13 14 15 16 17 18 19 20 21 22 23 24 25 26 27 28 29 30 31 32 33 34 35 36 37 38 39 40 41 42 43 44 45 46 47 48 49 50
000
ASUS43 KGLD 050508
RWRGLD

GOODLAND FORECAST AREA HOURLY WEATHER ROUNDUP
NATIONAL WEATHER SERVICE GOODLAND KS
1100 PM MDT SAT JUL 04 2015

...OFFICIAL OBSERVATIONS...

CITY           SKY/WX    TMP DP  RH WIND       PRES   REMARKS
GOODLAND KS    PTCLDY    76  60  57 SE17      29.92F
HILL CITY KS   PTCLDY    80  64  58 SE8       29.91R
IMPERIAL NEB   MOCLDY    81  62  52 SE14      29.90R
MCCOOK NEB     PTCLDY    78  62  57 SE9       29.89R
AKRON CO       PTCLDY    73  53  49 SW14      29.96R
BURLINGTON CO  CLOUDY    75  57  53 SW10      29.96R
LIMON CO       MOCLDY    67  54  63 CALM      30.04R
$$

...UNOFFICIAL OBSERVATIONS...

CITY           SKY/WX    TMP DP  RH WIND       PRES   REMARKS
COLBY KS       CLEAR     81  66  61 SE16      29.93S
GOVE KS          N/A     76  32  20 MISG        N/A
NORTON KS      CLEAR     75  57  53 SE10      29.89F
SHARON SPRINGS   N/A     77  62  59 SE12        N/A
KIT CARSON CO    N/A     76  56  50 MISG        N/A
$$


USA.gov is the U.S. government's official web portal to all federal, state and local government web resources and services.